Location: Earls Croome
(52.0667°N, 2.2000°W)
Time: 03:11:39
(UTC+00:00)

Cosmos 1400 Rocket - Pass Details

Date: 17 November 2019
Orbit: 522 x 568 km, 81.2° (Epoch: 08 December)

Event Time Altitude Azimuth Distance (km) Brightness Sun altitude
Exits shadow 05:43:55 - 349° (N) 2,744 6.2 -16.3°
Reaches altitude 10° 05:46:05 10° 353° (N) 1,865 5.3 -16.0°
Maximum altitude 05:50:09 59° 74° (ENE) 650 3.4 -15.3°
Drops below altitude 10° 05:54:08 10° 155° (SSE) 1,825 6.0 -14.7°
Sets 05:56:18 0° 159° (SSE) 2,706 6.8 -14.4°
